KUIPER-00148

Last updated on Mon Oct 20 2025 00:02:06 GMT+0000 (Coordinated Universal Time)

1 65769U 25217H 25292.27831008 .00045515 00000+0 13330-2 0 9990 2 65769 51.8620 327.9711 0009353 194.3022 165.7700 15.34733239 3669
UTC large
Height (km)
Speed (km/s)
/
Latitude / Longitude
Inclination (degrees)
Orbital Period (minutes)
Azimuth
Elevation
Range (km)
Doppler Factor

Next 0 passes for location: London (51.5072 / 0.1276)

Sorry there are no passes over London.